Decoded Metar for WIII (JAKARTA in INDONESIA) (IATA:CGK) | Meteo·Mobile Aviation Weather
aviador You're here:

WIII Decoded Metar

JAKARTA in INDONESIA
Report Time2020-02-18 21:00:00
UTC Time2020-02-18 21:21:37
Flight Rules mvfr MVFR
Wind260° at 05 kt
W.Decomp.*RWY 25: 4.9 kt HW 0.9 kt RCW
Visibility5000 m
Phenomena:Haze
Clouds:Few 018 Hf
Expected CloudBase > 800 ft AGL from Temp-Dew spread
CeilingNone
Temp25°C (ISA +10)
Dew Point23°C (89% RH)
QNH1010 hPa
Density Alt1,660 ft
Elevation26 ft
Report Wrong Elevation
Raw Report
METAR WIII 182100Z 26005KT 5000 HZ FEW018 25/23 Q1010 NOSIG=

Extra information for WIII:More info

Metar Taf Metar & Taf Last 4 Metars F.Rules Stats Wind Profile Meteogram Temp Stats Airport Information Weather charts Add Link Nearby VenuesMetar ALERT Operation Metar Decoded Social comments